Regional Weather Roundup
Issued by NWS

Home | Current Version | Previous Version | Text Only | Print | Product List | Glossary On
Versions: 1 2 3 4 5 6 7 8 9 10 11 12 13 14 15 16 17 18 19 20 21 22 23 24 25 26 27 28 29 30 31 32 33 34 35 36 37 38 39 40 41 42 43 44 45 46 47 48 49 50
754
ASUS43 KTOP 162159
RWRKS

WEATHER ROUNDUP FOR KANSAS
NATIONAL WEATHER SERVICE GOODLAND KS
400 PM CST MON JAN 16 2017

NOTE:  "FAIR" INDICATES FEW OR NO CLOUDS BELOW 12,000 FEET WITH NO
SIGNIFICANT WEATHER AND/OR OBSTRUCTIONS TO VISIBILITY.

KSZ001>006-013>018-027>032-041>047-162300-
NORTHWEST KANSAS

CITY           SKY/WX    TMP DP  RH WIND       PRES   REMARKS
GOODLAND       CLOUDY    32  31  96 N20G33    29.97R WCI  20
HAYS           CLOUDY    33  32  96 N13       29.92R WCI  24
HILL CITY      CLOUDY    34  34 100 N13       29.95R FOG     WCI  25
RUSSELL        CLOUDY    32  32 100 NW12      29.90R WCI  23
$$

KSZ061>065-074>080-084>089-162300-
SOUTHWEST KANSAS

CITY           SKY/WX    TMP DP  RH WIND       PRES   REMARKS
DODGE CITY     CLOUDY    33  31  92 NW12      29.92R WCI  24
ELKHART          N/A     35  25  67 NW13        N/A  WCI  26
GARDEN CITY    CLOUDY    34  31  88 N16       29.93R WCI  24
GREAT BEND     CLOUDY    33  31  92 NW12      29.91R WCI  24
LIBERAL        CLOUDY    37  34  87 NW15      29.97R WCI  28
$$

KSZ066>073-081>083-090>101-162300-
SOUTHEAST KANSAS

CITY           SKY/WX    TMP DP  RH WIND       PRES   REMARKS
CHANUTE        LGT RAIN  41  39  93 W15       29.90R
HUTCHINSON     CLOUDY    37  34  89 NW13      29.88R WCI  29
MEDICINE LODGE   N/A     37  32  82 NW10      29.92R WCI  30
NEWTON         CLOUDY    35  34  96 NW10      29.88R WCI  27
PARSONS        CLOUDY    44  40  85 MISG      29.91R
WICHITA INTL   CLOUDY    38  36  92 NW14      29.89R WCI  30
WICHITA JABRA  CLOUDY    37  36  96 W14       29.89R WCI  28
WINFIELD       CLOUDY    40  37  89 W14       29.92R WCI  32
$$

KSZ007>012-019>026-033>040-048>060-102>105-162300-
NORTHEAST KANSAS

CITY           SKY/WX    TMP DP  RH WIND       PRES   REMARKS
CONCORDIA      CLOUDY    32  32 100 N12       29.88R FOG     WCI  23
EMPORIA        CLOUDY    39  38  96 SW12      29.86R FOG     WCI  32
LAWRENCE       LGT RAIN  44  42  93 S9        29.85R
MANHATTAN      CLOUDY    37  36  96 NW5       29.85R FOG
OLATHE IND     LGT RAIN  45  43  93 SW12      29.85R
OLATHE EXE     LGT RAIN  45  44  97 SW10G18   29.84R
SALINA         CLOUDY    36  34  92 NW10      29.89R FOG     WCI  28
TOPEKA BILLARD LGT RAIN  44  40  85 SW12      29.85R
TOPEKA FORBES  LGT RAIN  44  41  89 SW10      29.84R
$$




USA.gov is the U.S. government's official web portal to all federal, state and local government web resources and services.